[[{"header":{"parameterUnit":"m.s-1","parameterCategory":1,"la1":30.2991,"la2":30.254,"lo1":-89.0895,"lo2":-89.0444,"dy":0.0017,"dx":0.0017,"nx":28,"ny":28,"refTime":"2025-01-17T03:00:00:Z","depth":0,"parameterNumber":2,"parameterNumberName":"U-component_of_WINDS"},"data":[0,0,0,0,0,0,0,0,0,0,0,0,0,0,0,0,0,0,0,0,0,0,0,0,0,0,0,0,0,0,0,0,0,0,0,0,0,0,0,0,0,0,0,0,0,0,0,0,0,0,0,0,0,0,0,0,0,0,-1.3283,-1.3284,0,-1.3337,-1.3337,-1.3338,-1.3367,-1.3367,-1.3367,-1.3367,-1.3422,-1.3423,-1.3425,0,0,0,0,0,0,0,0,0,0,0,0,0,-1.3206,-1.3207,-1.3283,-1.3284,-1.3285,-1.3337,-1.3337,-1.3338,-1.3367,-1.3367,-1.3367,-1.3367,-1.3421,-1.3423,-1.3425,0,0,0,0,0,0,0,0,0,0,0,0,0,-1.3247,-1.3207,-1.3283,-1.3305,-1.3308,-1.3336,-1.3337,-1.3338,-1.3367,-1.3367,-1.3367,-1.3367,-1.3421,-1.3423,-1.3425,-1.3436,0,0,-1.3431,-1.3432,0,0,0,0,0,0,0,0,-1.3245,-1.325,-1.3301,-1.3304,-1.3307,-1.3345,-1.333,-1.3371,-1.3367,-1.3344,-1.3367,-1.3367,-1.3396,-1.34,-1.341,-1.3438,-1.3441,-1.3431,-1.3433,-1.3434,-1.3434,0,0,0,0,0,0,0,-1.3242,-1.3248,-1.3304,-1.3302,-1.3305,-1.3312,-1.3318,-1.3338,-1.3369,-1.3346,-1.3349,-1.3355,-1.3398,-1.3408,-1.3412,-1.3441,-1.3431,-1.3433,-1.3435,-1.3435,-1.3481,-1.3481,0,0,0,0,0,0,-1.3235,-1.3245,-1.3303,-1.3306,-1.3275,-1.3314,-1.332,-1.3333,-1.3369,-1.3375,-1.3354,-1.3356,-1.3404,-1.3409,-1.3414,-1.3428,-1.3434,-1.3436,-1.3437,-1.3481,-1.3481,-1.3481,0,0,0,0,0,0,-1.3234,-1.324,-1.3301,-1.3276,-1.3284,-1.3315,-1.3329,-1.3334,-1.3344,-1.3375,-1.3381,-1.3359,-1.3405,-1.3411,-1.343,-1.3431,-1.3437,-1.3438,-1.3481,-1.3481,-1.3481,-1.3458,0,0,0,0,0,0,-1.3231,-1.3239,-1.3244,-1.3276,-1.3286,-1.3316,-1.3329,-1.3335,-1.3348,-1.335,-1.3381,-1.3386,-1.3405,-1.3427,-1.3432,-1.3434,-1.344,-1.3481,-1.3481,-1.3481,-1.3459,-1.3457,-1.3456,0,0,0,0,0,-1.3228,-1.3236,-1.3244,-1.3251,-1.3292,-1.3316,-1.3321,-1.3343,-1.3348,-1.3352,-1.3372,-1.3385,-1.343,-1.3428,-1.3435,-1.3437,-1.3481,-1.3481,-1.3481,-1.346,-1.3458,-1.3456,0,0,0,0,0,0,-1.3203,-1.324,-1.325,-1.3268,-1.3289,-1.3321,-1.3328,-1.334,-1.336,-1.3361,-1.3387,-1.3394,-1.341,-1.3426,-1.3423,-1.3449,-1.3457,-1.3458,-1.3439,-1.3437,-1.3435,-1.3431,-1.3442,0,0,0,0,0,-1.32,-1.3216,-1.3248,-1.3261,-1.327,-1.3297,-1.3308,-1.3323,-1.3345,-1.3354,-1.3375,-1.3396,-1.3415,-1.3427,-1.3446,-1.3461,-1.3468,-1.3466,-1.3464,-1.3463,-1.3464,-1.3473,-1.3472,-1.348,-1.348,-1.348,0,0,-1.3193,-1.3215,-1.3224,-1.3256,-1.3274,-1.329,-1.3304,-1.3321,-1.3333,-1.3357,-1.3376,-1.3392,-1.3417,-1.3435,-1.3443,-1.3448,-1.3463,-1.3463,-1.3462,-1.3463,-1.3472,-1.3471,-1.3471,-1.348,-1.348,-1.348,0,0,-1.3189,-1.3207,-1.322,-1.3237,-1.3263,-1.3281,-1.3284,-1.3314,-1.3325,-1.3345,-1.3363,-1.3378,-1.341,-1.3427,-1.3439,-1.3441,-1.3453,-1.3446,-1.3438,-1.3446,-1.3446,-1.3445,-1.3445,-1.3445,-1.3447,-1.3446,-1.3446,0,-1.3177,-1.3202,-1.3225,-1.324,-1.3253,-1.3275,-1.3288,-1.3303,-1.3335,-1.3343,-1.3348,-1.3388,-1.3406,-1.3427,-1.3428,-1.3437,-1.3441,-1.3443,-1.3444,-1.3444,-1.3444,-1.3444,-1.3444,-1.3445,-1.3446,-1.3446,-1.3446,0,-1.3186,-1.3203,-1.321,-1.3239,-1.3253,-1.3267,-1.3291,-1.3303,-1.3316,-1.3333,-1.3353,-1.3375,-1.3399,-1.3405,-1.3419,-1.3428,-1.343,-1.3439,-1.3447,-1.3441,-1.3442,-1.3442,-1.3444,-1.3444,-1.3445,-1.3445,0,0,-1.3168,-1.3209,-1.3211,-1.3224,-1.3254,-1.3268,-1.3283,-1.3306,-1.3315,-1.3335,-1.3348,-1.3374,-1.3382,-1.3397,-1.3412,-1.3419,-1.3418,-1.3427,-1.3428,-1.3424,-1.343,-1.3423,-1.3422,-1.3427,-1.3427,-1.3427,-1.3427,0,-1.3168,-1.3195,-1.3216,-1.3235,-1.3251,-1.3271,-1.3284,-1.3304,-1.332,-1.3335,-1.3353,-1.3371,-1.338,-1.3389,-1.3397,-1.3416,-1.3419,-1.3417,-1.3439,-1.3439,-1.3431,-1.3423,-1.3416,-1.3415,-1.3428,-1.3428,-1.3428,0,-1.3172,-1.3191,-1.3212,-1.324,-1.3247,-1.3258,-1.328,-1.3295,-1.3318,-1.3329,-1.3344,-1.336,-1.3376,-1.3382,-1.3405,-1.3402,-1.3413,-1.3423,-1.3424,-1.3427,-1.3433,-1.3425,-1.3416,-1.3415,-1.3429,-1.3429,-1.3429,0,-1.3156,-1.3187,-1.3204,-1.3214,-1.3247,-1.3255,-1.3269,-1.3291,-1.3303,-1.3323,-1.3331,-1.3352,-1.3364,-1.338,-1.34,-1.3403,-1.342,-1.3429,-1.343,-1.3429,-1.3433,-1.3432,-1.3424,-1.3439,-1.3439,-1.3439,-1.3439,0,-1.3154,-1.3166,-1.3197,-1.3207,-1.3221,-1.3244,-1.3257,-1.3272,-1.3292,-1.3306,-1.3325,-1.3337,-1.3364,-1.3379,-1.3395,-1.3411,-1.3416,-1.3425,-1.343,-1.3424,-1.3422,-1.3431,-1.3431,-1.3439,-1.3439,-1.3439,-1.3439,0,-1.3139,-1.3161,-1.318,-1.3209,-1.3216,-1.3225,-1.325,-1.3261,-1.3277,-1.3294,-1.3299,-1.3325,-1.3344,-1.3367,-1.3393,-1.3404,-1.3418,-1.3424,-1.341,-1.3413,-1.3413,-1.3412,-1.341,-1.341,-1.3425,-1.3425,-1.3425,0,-1.3136,-1.3146,-1.3176,-1.3186,-1.3199,-1.3215,-1.3228,-1.325,-1.3262,-1.3288,-1.3295,-1.3316,-1.3333,-1.3362,-1.3384,-1.3404,-1.3411,-1.3408,-1.3414,-1.3407,-1.341,-1.3409,-1.341,-1.3407,-1.3407,-1.3406,-1.3406,0,-1.3129,-1.3139,-1.3156,-1.3176,-1.319,-1.3207,-1.3226,-1.3233,-1.3259,-1.3272,-1.3291,-1.3304,-1.3331,-1.335,-1.3373,-1.3388,-1.3401,-1.3404,-1.3406,-1.34,-1.3391,-1.3395,-1.3406,-1.3404,-1.3404,-1.3405,-1.3405,-1.3405,-1.312,-1.3129,-1.3151,-1.3169,-1.3185,-1.3201,-1.3212,-1.323,-1.3246,-1.3269,-1.3282,-1.33,-1.3322,-1.3354,-1.3368,-1.3383,-1.3388,-1.339,-1.339,-1.339,-1.3388,-1.3388,-1.3387,-1.3387,-1.3388,-1.3388,-1.3388,0,-1.3113,-1.3128,-1.3145,-1.3169,-1.3183,-1.3194,-1.3214,-1.3225,-1.3241,-1.3261,-1.3277,-1.3299,-1.3318,-1.334,-1.3361,-1.3369,-1.3375,-1.3373,-1.3373,-1.3376,-1.3383,-1.338,-1.3367,-1.3367,-1.3367,-1.3367,-1.3367,-1.3367,-1.3111,-1.3127,-1.3139,-1.3163,-1.3178,-1.3196,-1.3207,-1.3222,-1.3237,-1.326,-1.3276,-1.329,-1.3311,-1.3333,-1.3351,-1.3357,-1.3363,-1.3359,-1.3367,-1.3374,-1.3375,-1.3377,-1.3374,-1.3361,-1.3361,-1.3359,-1.3359,-1.3359]},{"header":{"parameterUnit":"m.s-1","parameterCategory":1,"la1":30.2991,"la2":30.254,"lo1":-89.0895,"lo2":-89.0444,"dy":0.0017,"dx":0.0017,"nx":28,"ny":28,"refTime":"2025-01-17T03:00:00:Z","depth":0,"parameterNumber":3,"parameterNumberName":"V-component_of_WINDS"},"data":[0,0,0,0,0,0,0,0,0,0,0,0,0,0,0,0,0,0,0,0,0,0,0,0,0,0,0,0,0,0,0,0,0,0,0,0,0,0,0,0,0,0,0,0,0,0,0,0,0,0,0,0,0,0,0,0,0,0,4.786,4.786,0,4.7905,4.7905,4.7906,4.7851,4.7849,4.7847,4.7845,4.789,4.7893,4.7896,0,0,0,0,0,0,0,0,0,0,0,0,0,4.7725,4.7728,4.7859,4.786,4.7861,4.7905,4.7905,4.7906,4.7852,4.7849,4.7847,4.7844,4.7889,4.7892,4.7896,0,0,0,0,0,0,0,0,0,0,0,0,0,4.7778,4.7728,4.7859,4.7839,4.7837,4.7905,4.7905,4.7906,4.7852,4.7849,4.7846,4.7843,4.7887,4.7892,4.7896,4.7985,0,0,4.791,4.7912,0,0,0,0,0,0,0,0,4.7775,4.7783,4.7841,4.784,4.7839,4.7869,4.7874,4.7933,4.7853,4.7847,4.7845,4.7842,4.7885,4.789,4.7905,4.7987,4.7989,4.7911,4.7913,4.7915,4.7917,0,0,0,0,0,0,0,4.7771,4.7781,4.7877,4.7842,4.7841,4.7827,4.7831,4.7885,4.7882,4.7847,4.7843,4.7849,4.7884,4.7901,4.7905,4.799,4.7911,4.7915,4.7917,4.7919,4.815,4.8153,0,0,0,0,0,0,4.777,4.7778,4.7876,4.7879,4.7799,4.7832,4.7837,4.7863,4.7881,4.7881,4.7852,4.7847,4.7894,4.79,4.7907,4.8014,4.7915,4.792,4.7922,4.8147,4.8151,4.8155,0,0,0,0,0,0,4.7768,4.778,4.7874,4.7827,4.7838,4.7838,4.7867,4.7865,4.7882,4.7885,4.7884,4.7869,4.7892,4.79,4.7967,4.8015,4.7922,4.7926,4.8143,4.8148,4.8153,4.8229,0,0,0,0,0,0,4.7764,4.7779,4.7813,4.7829,4.7841,4.7934,4.787,4.7868,4.789,4.7884,4.7902,4.7902,4.789,4.796,4.7972,4.802,4.793,4.8139,4.8145,4.8151,4.8222,4.8236,4.8248,0,0,0,0,0,4.7759,4.7831,4.7815,4.7827,4.7884,4.7937,4.7944,4.793,4.7894,4.7928,4.7931,4.7901,4.8008,4.7968,4.798,4.803,4.8135,4.8143,4.8151,4.8217,4.8234,4.8248,0,0,0,0,0,0,4.782,4.7833,4.7815,4.7894,4.7915,4.7928,4.797,4.7948,4.7979,4.7972,4.7952,4.7957,4.8029,4.8035,4.7991,4.8118,4.8066,4.8076,4.8112,4.8128,4.814,4.8138,4.7933,0,0,0,0,0,4.7842,4.7885,4.7894,4.7963,4.7975,4.7971,4.7993,4.7981,4.8002,4.801,4.8017,4.8038,4.8076,4.8102,4.8137,4.8222,4.8227,4.8263,4.8276,4.8287,4.8296,4.8345,4.8362,4.818,4.818,4.8179,0,0,4.7889,4.7902,4.793,4.7976,4.799,4.8036,4.7979,4.8028,4.8061,4.8017,4.8082,4.8088,4.811,4.8187,4.8221,4.8195,4.8348,4.8296,4.8305,4.8309,4.8354,4.8372,4.8387,4.8185,4.8184,4.8183,0,0,4.7999,4.8012,4.8072,4.8089,4.8113,4.811,4.8125,4.8141,4.8144,4.8209,4.8178,4.8216,4.8282,4.83,4.8318,4.8436,4.8411,4.8448,4.8516,4.8563,4.8578,4.859,4.8635,4.8651,4.8457,4.8457,4.8457,0,4.8054,4.8121,4.8106,4.8159,4.818,4.8144,4.8206,4.8222,4.8256,4.8272,4.8242,4.8326,4.8337,4.842,4.8449,4.8464,4.8481,4.8446,4.8577,4.8589,4.8601,4.8644,4.866,4.8462,4.8461,4.8461,4.846,0,4.8189,4.8237,4.8282,4.8319,4.8345,4.8402,4.8395,4.8424,4.841,4.8411,4.8478,4.8491,4.853,4.8548,4.8533,4.8629,4.8612,4.858,4.8527,4.8623,4.8663,4.8679,4.8468,4.8467,4.8465,4.8464,0,0,4.8338,4.8366,4.8383,4.8401,4.8425,4.8461,4.8517,4.8556,4.8582,4.8606,4.8654,4.8711,4.8683,4.8703,4.869,4.8731,4.8828,4.8694,4.8694,4.8721,4.8937,4.8963,4.8982,4.881,4.8813,4.8816,4.8936,0,4.845,4.8548,4.8536,4.863,4.8675,4.8642,4.869,4.8711,4.8713,4.8751,4.8753,4.8795,4.8752,4.8765,4.8804,4.8808,4.8872,4.8799,4.8856,4.8858,4.8854,4.9003,4.903,4.9143,4.8951,4.8954,4.8956,0,4.8593,4.8626,4.8725,4.8745,4.8763,4.8807,4.8844,4.888,4.8903,4.8902,4.8926,4.8907,4.8963,4.8908,4.8986,4.8937,4.8959,4.8965,4.8969,4.8975,4.8914,4.9016,4.9178,4.9196,4.898,4.8978,4.8976,0,4.8696,4.8763,4.8832,4.8847,4.8872,4.8904,4.8916,4.8936,4.8961,4.8992,4.9009,4.9045,4.9066,4.9095,4.9087,4.9047,4.9168,4.9111,4.917,4.9171,4.9199,4.9197,4.937,4.9209,4.9209,4.9208,4.9208,0,4.8823,4.8885,4.8879,4.8921,4.8991,4.8977,4.9046,4.9053,4.9072,4.9115,4.9087,4.9129,4.9114,4.9154,4.9148,4.9215,4.9224,4.9225,4.9223,4.923,4.923,4.9246,4.9239,4.9213,4.9212,4.9211,4.921,0,4.8949,4.8947,4.9021,4.9039,4.9045,4.9096,4.9111,4.9151,4.9151,4.9207,4.9219,4.922,4.9267,4.9261,4.9312,4.9308,4.9393,4.938,4.9386,4.9384,4.9444,4.944,4.9635,4.9661,4.9481,4.9482,4.9484,0,4.9032,4.908,4.9104,4.9132,4.9147,4.9192,4.9218,4.9206,4.9235,4.9266,4.9303,4.9347,4.9383,4.9459,4.9464,4.9504,4.9493,4.9558,4.9499,4.9504,4.9497,4.9496,4.9502,4.9571,4.9573,4.9575,4.9576,0,4.918,4.9178,4.9217,4.9258,4.9291,4.9321,4.9349,4.9373,4.9364,4.9397,4.9446,4.9473,4.9527,4.9573,4.961,4.9622,4.9599,4.9595,4.9611,4.9619,4.9622,4.9624,4.9421,4.9591,4.9589,4.9588,4.9587,4.9587,4.9289,4.9332,4.9356,4.9402,4.9422,4.9449,4.9489,4.9496,4.9536,4.9581,4.957,4.9626,4.9649,4.9698,4.9713,4.9757,4.9733,4.9755,4.9762,4.9768,4.9777,4.9613,4.9763,4.9762,4.9762,4.9762,4.9761,0,4.9439,4.9454,4.9496,4.9537,4.9574,4.9549,4.9579,4.9611,4.966,4.9684,4.9721,4.9777,4.9822,4.9831,4.9873,4.9906,4.9897,4.9918,4.9917,4.992,4.9794,4.9777,4.9925,4.9925,4.9925,4.9925,4.9925,4.9925,4.9521,4.9592,4.9593,4.9674,4.9688,4.9743,4.9763,4.9788,4.9808,4.9873,4.9911,4.9917,4.9935,4.9979,5.0019,5.002,5.0039,5.0065,5.0063,4.9945,4.9929,4.9913,4.9898,5.0068,5.0068,5.0185,5.0186,5.0187]}]]